Wind_Speed
9 10 10 10 10 11 11 11 11 11 12 11 12 12 11 11 11 11 11 11 10 11 11 11 11 11 11 11 11 11 11 11 10 10 10 10 10 11 11 12 13 13 14 14
11 11 11 12 12 11 11 12 12 12 13 13 13 13 12 11 11 11 12 12 11 11 12 12 12 13 12 12 12 12 12 12 11 11 11 11 11 12 12 13 14 14 15 15
14 13 14 14 13 13 13 12 13 13 14 14 14 14 13 12 12 12 12 12 12 12 12 13 13 13 13 13 13 13 13 13 12 12 13 12 13 13 13 14 15 15 16 17
15 15 15 14 14 14 14 13 14 14 15 16 16 15 15 14 13 13 13 13 13 13 13 13 14 14 14 14 14 14 14 14 14 14 14 14 14 15 15 15 16 17 18 18
18 18 17 15 15 16 15 14 14 15 16 17 17 17 16 15 15 14 15 15 15 15 15 14 14 15 15 15 15 15 15 15 15 16 16 16 16 16 16 17 17 18 19 20
20 20 18 16 17 17 17 16 15 16 17 18 18 18 16 16 16 15 15 16 16 15 15 15 15 16 16 16 16 16 16 17 17 18 18 18 18 18 18 19 19 20 21 22
21 21 19 18 18 19 18 17 17 18 18 18 18 18 17 18 17 16 16 16 16 16 16 16 16 17 17 18 17 18 18 19 19 19 19 20 20 20 21 21 22 22 23 23
22 22 21 20 20 21 21 21 20 19 19 18 18 19 18 18 18 17 17 17 17 17 17 17 18 18 19 19 19 20 20 20 21 21 21 22 22 22 23 23 24 25 25 26
23 23 22 22 23 23 22 22 22 21 20 20 20 19 19 18 18 18 18 18 18 18 18 19 19 20 20 21 21 22 22 22 22 23 23 23 24 24 25 26 26 27 27 28
25 24 24 25 25 24 24 24 24 23 22 22 21 20 20 20 20 20 20 20 20 20 20 20 21 21 22 22 23 24 23 24 24 25 25 25 25 26 27 28 28 29 29 30
28 26 26 26 26 26 26 25 24 24 24 24 23 22 21 22 21 21 21 21 21 21 22 22 23 23 23 23 24 25 25 25 26 26 27 27 27 28 29 30 30 30 31 32
29 28 28 27 28 27 26 26 26 25 25 25 25 25 24 24 23 23 23 23 23 24 24 24 24 24 25 25 26 26 27 27 27 28 28 28 29 30 31 31 32 32 33 34
29 29 29 28 28 28 27 27 26 26 26 26 26 26 26 26 25 25 25 25 25 25 25 25 26 26 27 27 27 28 28 28 29 29 29 30 31 31 32 32 33 34 35 35
30 30 29 28 28 29 29 28 28 28 27 27 27 27 27 27 27 27 27 27 27 27 27 27 27 28 28 29 29 30 30 30 30 31 31 32 32 33 34 34 35 36 37 37
31 31 30 29 29 29 30 29 29 29 29 29 28 29 29 28 28 28 28 29 29 29 29 29 29 29 30 31 31 31 31 31 32 33 33 33 34 35 36 37 37 38 38 38
32 31 30 30 30 30 30 30 30 30 29 29 30 30 30 30 30 29 29 29 30 30 31 32 32 32 32 32 33 33 33 34 34 34 35 36 37 37 38 39 39 39 39 40
33 32 32 31 31 31 31 30 30 30 31 31 31 31 31 31 31 31 31 31 32 32 32 32 32 32 32 33 34 34 34 35 35 36 37 38 39 39 39 40 40 41 41 41
34 34 34 34 34 33 33 32 31 31 31 31 31 31 31 32 32 32 32 32 32 32 32 33 33 34 34 34 35 36 36 36 37 38 38 39 39 39 40 40 41 42 42 42
35 34 34 35 35 34 34 33 33 32 32 32 32 32 32 32 33 33 33 34 34 34 34 35 36 36 36 36 36 37 37 38 39 39 39 40 40 40 40 41 42 42 43 43
35 35 35 35 35 35 35 35 35 34 34 33 34 34 35 34 35 35 35 36 36 36 36 37 37 38 38 38 38 39 40 40 40 41 41 41 41 41 42 42 43 44 45 46
35 36 36 35 36 36 37 37 36 36 36 36 36 36 37 37 37 37 37 37 37 37 38 38 39 39 40 40 40 41 41 42 42 42 42 42 43 44 44 45 45 46 47 47
37 37 37 37 37 38 38 38 38 38 38 38 38 38 38 38 39 39 39 38 38 39 39 40 40 41 41 41 42 42 43 43 43 43 44 44 45 45 46 46 47 47 48 48
38 38 38 38 38 38 39 39 39 39 39 39 39 39 39 39 39 39 40 40 40 40 41 41 42 42 42 43 43 44 44 44 44 45 46 46 46 46 46 47 47 48 48 49
39 39 39 39 39 39 39 40 40 40 40 40 41 41 41 41 40 40 40 41 41 42 42 42 43 43 43 44 44 45 45 45 46 46 47 46 46 46 46 47 48 48 49 49
39 39 40 40 41 40 40 40 40 41 41 40 41 42 41 41 41 41 41 41 42 42 43 44 43 44 44 45 45 45 46 46 46 47 47 47 47 47 48 48 49 49 49 49
38 38 39 39 39 40 41 42 42 42 41 41 41 41 41 41 41 42 42 43 43 43 43 43 44 44 44 45 45 46 46 47 48 48 48 48 48 48 48 49 49 49 49 49
36 36 37 37 37 38 38 39 40 41 41 41 42 42 42 42 43 43 44 43 44 44 44 45 45 45 46 46 46 46 46 47 47 47 48 48 48 48 48 49 49 49 49 49
Wind_Direction
239 236 234 238 234 232 233 231 237 239 245 252 252 252 247 240 237 239 238 238 240 241 241 240 241 244 248 252 255 258 262 266 271 272 277 283 288 293 298 304 309 313 317 320
239 241 240 245 245 242 239 235 237 239 243 245 249 249 248 244 242 242 242 243 244 245 245 245 245 245 247 252 257 259 261 266 268 270 276 281 286 291 295 300 305 309 312 315
238 243 246 249 251 250 249 245 241 242 245 245 249 251 249 248 247 248 247 247 249 252 251 251 251 249 249 254 258 261 263 266 269 272 276 279 284 289 293 297 301 305 309 312
240 241 244 250 255 254 252 247 245 243 243 244 247 251 250 251 252 251 253 252 253 254 255 256 253 251 254 257 261 263 265 268 272 274 276 280 284 288 292 296 299 302 306 309
241 241 244 247 253 255 255 250 249 248 246 247 249 251 253 253 255 254 253 253 255 255 258 256 253 254 256 260 263 265 267 269 272 275 277 280 283 286 290 294 297 301 304 307
243 243 244 248 250 253 255 254 251 250 250 251 251 252 252 252 255 257 255 255 257 257 257 257 257 258 260 263 265 267 268 269 272 276 277 280 282 285 289 293 296 300 302 304
245 247 246 247 249 252 253 252 249 250 250 252 252 252 253 253 253 257 256 255 257 257 258 259 259 260 262 264 265 268 269 270 273 275 277 278 281 284 288 292 295 299 301 302
247 248 246 247 249 250 251 250 251 252 252 253 254 254 255 256 255 254 254 255 256 258 259 260 261 262 264 265 267 269 271 273 275 276 276 278 280 284 286 290 294 297 299 300
248 249 249 247 250 252 253 253 253 254 255 256 256 256 256 257 255 254 254 255 256 258 259 261 263 265 266 268 270 272 273 274 276 277 278 279 281 284 287 290 293 295 297 299
249 249 249 250 251 252 254 254 254 256 256 256 257 257 256 256 255 255 256 257 259 259 260 262 264 266 267 269 271 272 273 275 277 278 279 280 282 285 288 290 292 294 296 297
248 248 248 250 252 253 255 256 256 255 255 255 255 256 256 257 257 256 257 259 260 260 261 262 265 267 269 270 272 273 275 277 278 278 280 281 284 287 289 291 292 293 295 297
247 246 247 248 249 252 254 255 255 255 255 255 256 256 256 256 257 257 258 260 260 261 262 264 266 268 270 273 274 275 277 279 280 281 281 283 286 288 289 290 292 293 295 296
247 247 248 250 251 253 255 255 255 255 255 254 255 257 257 257 258 259 259 260 261 262 263 265 266 268 270 273 275 277 279 280 281 282 283 285 288 289 290 291 293 294 296 296
246 247 249 250 251 252 254 254 254 254 254 254 254 256 257 258 258 260 260 261 262 263 264 266 268 270 271 274 276 277 279 280 281 282 284 286 288 289 290 291 293 294 295 296
247 247 248 250 253 254 254 254 254 254 254 254 254 255 256 258 259 260 261 261 262 263 265 267 269 270 272 274 275 277 279 280 280 281 283 285 287 289 291 292 293 294 295 295
248 248 249 251 253 254 255 255 255 254 254 255 255 256 256 257 259 260 261 263 264 265 266 268 270 271 272 274 274 276 278 279 281 282 284 285 287 289 291 292 293 294 295 295
250 249 250 251 253 254 256 256 256 256 255 255 256 256 256 257 259 261 262 264 266 268 269 270 271 272 273 275 276 277 278 279 280 283 285 286 288 290 291 292 293 293 295 295
251 251 250 251 253 254 254 255 255 256 257 258 257 257 258 259 261 262 263 265 266 268 270 271 271 272 274 275 276 277 278 279 281 283 286 287 289 290 291 292 293 293 294 295
251 252 252 253 253 253 254 255 256 256 257 258 258 259 260 261 262 263 265 266 267 269 270 272 273 274 275 276 276 278 280 281 283 284 285 287 288 289 291 292 293 294 294 294
251 252 253 253 253 253 253 254 255 256 257 258 259 260 261 262 263 265 266 268 269 270 271 272 273 274 275 275 277 279 281 282 284 284 285 286 288 289 290 292 293 294 295 295
251 251 252 253 253 253 254 254 255 256 257 258 260 260 261 262 263 265 267 269 270 270 271 272 273 274 275 276 278 279 281 282 283 284 285 286 287 288 290 291 292 293 294 295
253 253 253 254 255 255 255 255 256 257 258 259 259 260 260 261 263 265 266 268 270 271 272 273 274 275 276 277 278 279 280 281 282 283 284 285 287 288 289 291 292 293 295 295
254 254 255 255 256 256 256 256 257 258 258 258 259 260 261 261 263 265 266 268 269 271 273 274 274 275 276 276 277 278 279 280 282 283 284 285 287 288 289 291 293 294 295 296
255 256 256 256 256 256 256 257 258 258 259 259 259 260 262 262 263 265 267 268 269 271 272 274 275 275 276 277 277 278 279 280 281 283 284 286 287 288 289 291 292 294 295 295
255 256 256 257 257 256 256 256 257 258 260 260 261 262 263 264 264 265 266 268 270 271 273 274 275 276 277 278 278 279 279 280 281 283 284 285 286 287 289 290 292 293 294 295
255 256 257 258 258 257 257 257 257 258 259 261 262 263 264 265 266 267 268 269 271 273 274 275 276 277 277 278 278 279 280 281 282 283 284 285 286 287 288 290 291 292 293 294
255 256 258 258 259 259 259 260 260 259 259 260 262 263 264 266 267 268 269 271 272 273 274 276 276 277 277 278 279 280 281 282 282 283 284 285 286 288 289 290 291 291 292 292
Height
5829 5830 5831 5832 5834 5835 5837 5838 5840 5841 5842 5842 5843 5844 5845 5847 5848 5850 5851 5852 5854 5855 5856 5858 5859 5860 5861 5862 5863 5864 5865 5865 5865 5866 5866 5866 5866 5865 5864 5863 5862 5861 5860 5858
5827 5828 5829 5830 5832 5833 5835 5836 5837 5838 5839 5840 5840 5842 5843 5844 5846 5847 5849 5850 5851 5853 5854 5855 5856 5857 5858 5859 5861 5861 5862 5862 5863 5863 5863 5863 5863 5862 5862 5861 5860 5858 5857 5855
5824 5825 5826 5828 5830 5831 5832 5833 5834 5835 5837 5837 5838 5839 5841 5842 5843 5845 5846 5847 5849 5850 5851 5852 5853 5854 5855 5857 5857 5858 5859 5859 5860 5860 5860 5860 5860 5859 5859 5858 5856 5855 5854 5852
5820 5823 5823 5827 5827 5827 5828 5830 5831 5832 5833 5834 5835 5837 5838 5839 5840 5842 5843 5844 5846 5847 5848 5849 5850 5851 5852 5853 5854 5855 5856 5856 5856 5857 5857 5857 5856 5856 5855 5854 5853 5851 5850 5848
5817 5818 5819 5822 5823 5824 5825 5827 5828 5829 5829 5831 5832 5833 5835 5836 5837 5838 5840 5841 5842 5843 5844 5845 5846 5847 5849 5850 5850 5851 5852 5852 5853 5853 5853 5853 5852 5851 5851 5850 5849 5847 5846 5844
5812 5814 5816 5819 5819 5820 5822 5823 5824 5824 5825 5827 5828 5830 5832 5832 5834 5835 5836 5837 5838 5839 5840 5841 5843 5844 5845 5846 5847 5847 5848 5848 5848 5848 5848 5848 5847 5847 5846 5845 5844 5843 5841 5839
5808 5809 5812 5814 5814 5816 5819 5820 5820 5820 5822 5823 5824 5826 5828 5828 5830 5831 5832 5833 5834 5835 5836 5838 5838 5839 5840 5841 5842 5843 5843 5843 5843 5843 5843 5843 5842 5842 5841 5840 5838 5837 5836 5834
5803 5804 5809 5809 5809 5812 5813 5813 5815 5816 5818 5819 5820 5821 5823 5824 5825 5827 5828 5829 5830 5831 5832 5833 5834 5835 5836 5837 5837 5837 5838 5838 5838 5838 5838 5837 5837 5836 5835 5834 5832 5831 5829 5827
5798 5801 5802 5803 5804 5805 5807 5808 5810 5811 5813 5814 5815 5817 5818 5819 5820 5822 5823 5824 5826 5827 5828 5829 5829 5830 5831 5831 5831 5832 5832 5832 5832 5832 5831 5831 5830 5830 5828 5827 5826 5824 5822 5820
5791 5794 5795 5796 5798 5799 5801 5803 5805 5806 5808 5809 5810 5812 5813 5814 5815 5817 5818 5819 5820 5821 5822 5823 5824 5824 5825 5825 5826 5826 5826 5826 5825 5825 5825 5824 5823 5822 5821 5820 5818 5816 5814 5812
5784 5787 5789 5790 5791 5793 5795 5797 5799 5800 5802 5803 5805 5806 5808 5809 5810 5811 5812 5814 5815 5816 5817 5817 5818 5818 5819 5819 5819 5819 5819 5819 5818 5818 5817 5816 5816 5814 5813 5811 5809 5808 5806 5803
5777 5780 5782 5783 5785 5787 5789 5791 5792 5794 5795 5797 5799 5800 5801 5803 5804 5805 5806 5807 5808 5809 5810 5811 5811 5812 5812 5812 5812 5812 5812 5811 5811 5810 5809 5808 5807 5806 5804 5803 5801 5799 5797 5794
5769 5771 5774 5776 5778 5780 5782 5784 5785 5787 5789 5790 5792 5793 5795 5796 5797 5798 5800 5801 5801 5802 5803 5804 5804 5805 5805 5805 5805 5804 5804 5803 5803 5802 5801 5800 5799 5797 5796 5794 5792 5789 5787 5784
5760 5763 5765 5768 5770 5772 5774 5776 5778 5779 5781 5783 5784 5786 5787 5789 5790 5791 5792 5793 5794 5795 5795 5796 5797 5797 5797 5797 5796 5796 5795 5795 5794 5793 5792 5791 5790 5788 5786 5785 5783 5780 5777 5774
5752 5755 5757 5760 5762 5764 5766 5768 5770 5771 5773 5775 5776 5778 5779 5781 5782 5783 5784 5785 5786 5787 5787 5788 5788 5789 5788 5788 5788 5787 5787 5786 5785 5784 5782 5781 5780 5778 5776 5774 5772 5770 5767 5764
5744 5746 5749 5751 5754 5755 5757 5759 5761 5763 5765 5766 5768 5769 5771 5772 5774 5775 5776 5777 5777 5778 5778 5779 5779 5779 5779 5779 5778 5778 5777 5776 5775 5774 5772 5771 5769 5767 5765 5763 5761 5758 5755 5753
5735 5738 5740 5742 5745 5747 5749 5751 5752 5754 5756 5757 5759 5760 5762 5763 5765 5766 5767 5768 5768 5769 5769 5769 5770 5770 5769 5769 5768 5767 5767 5766 5764 5763 5762 5760 5758 5756 5754 5751 5749 5746 5744 5741
5725 5728 5731 5733 5735 5737 5739 5741 5743 5745 5747 5748 5750 5751 5753 5754 5755 5757 5757 5758 5759 5759 5760 5760 5759 5759 5759 5758 5758 5757 5756 5755 5754 5752 5750 5748 5746 5744 5742 5739 5737 5734 5732 5729
5716 5718 5721 5723 5725 5728 5730 5732 5734 5736 5737 5739 5740 5742 5743 5745 5746 5747 5748 5748 5749 5749 5750 5749 5749 5748 5748 5747 5746 5745 5744 5743 5742 5740 5739 5737 5735 5732 5730 5727 5725 5722 5719 5716
5706 5708 5711 5713 5715 5718 5720 5722 5724 5726 5728 5729 5731 5732 5733 5734 5736 5736 5737 5738 5738 5739 5738 5738 5738 5737 5736 5736 5735 5734 5733 5731 5730 5728 5726 5725 5723 5720 5718 5715 5712 5709 5706 5702
5695 5698 5700 5702 5705 5707 5709 5711 5714 5715 5717 5719 5720 5721 5722 5724 5725 5725 5726 5727 5727 5727 5727 5726 5725 5725 5724 5723 5722 5721 5720 5719 5717 5716 5714 5712 5710 5708 5705 5702 5699 5696 5692 5689
5684 5687 5689 5691 5694 5696 5698 5700 5702 5704 5705 5707 5709 5710 5711 5712 5713 5714 5714 5715 5715 5715 5714 5714 5713 5712 5711 5710 5709 5708 5707 5706 5704 5703 5701 5699 5697 5694 5691 5688 5685 5682 5678 5675
5673 5675 5678 5680 5682 5684 5686 5688 5690 5692 5693 5695 5696 5698 5699 5700 5701 5702 5702 5703 5702 5702 5702 5701 5700 5699 5698 5697 5696 5695 5694 5692 5691 5689 5687 5685 5682 5680 5677 5674 5671 5668 5664 5660
5662 5664 5666 5668 5670 5672 5674 5676 5678 5680 5681 5683 5684 5685 5686 5687 5688 5689 5689 5690 5690 5689 5689 5688 5687 5686 5685 5683 5682 5681 5680 5678 5677 5675 5673 5670 5668 5666 5663 5660 5656 5653 5649 5645
5650 5652 5654 5656 5658 5660 5662 5664 5665 5667 5669 5670 5671 5672 5674 5675 5676 5676 5676 5676 5676 5676 5675 5674 5673 5672 5671 5670 5668 5667 5665 5664 5662 5660 5658 5656 5653 5651 5648 5645 5642 5638 5634 5630
5639 5641 5642 5644 5646 5648 5649 5651 5653 5655 5657 5658 5659 5660 5661 5662 5662 5662 5662 5663 5663 5662 5661 5660 5659 5658 5657 5655 5654 5652 5651 5650 5648 5645 5643 5641 5638 5636 5633 5630 5627 5623 5619 5615
5628 5629 5631 5633 5635 5636 5638 5639 5641 5643 5644 5646 5647 5648 5648 5649 5649 5649 5649 5649 5649 5648 5647 5646 5645 5644 5643 5641 5639 5638 5636 5634 5632 5630 5628 5626 5623 5621 5618 5615 5612 5608 5604 5600